Location: Slanting_Bridge
(35.6330°N, 80.9830°W)
Time: 01:36:59
(UTC-04:00)

Amateur Radio Satellites - All Passes

Search period start: 26 May 2015 01:06
Search period end: 27 May 2015 01:06
Location: Slanting_Bridge, 35.6330°N, 80.9830°W

Satellite Date Start Highest point End Downlink Frequencies (MHz)
Time Altitude Azimuth
CUSAT 1 26 May 01:13:58 01:21:11 79° 264° (W) 01:26:40 437.405
TISAT 1 26 May 01:19:22 01:23:34 66° 258° (WSW) 01:27:50 437.305
UNISAT 6 26 May 01:26:54 01:28:16 11° 294° (WNW) 01:29:23 437.425
BUGSAT 1 26 May 01:29:59 01:33:46 30° 288° (WNW) 01:37:26 437.445
VERMONT LUNAR 26 May 01:30:19 01:32:01 14° 144° (SE) 01:33:46 437.305
Oscar 19 26 May 01:34:33 01:36:00 11° 89° (E) 01:37:48 437.125/150
ITUPSAT 1 26 May 01:34:33 01:38:25 26° 70° (ENE) 01:42:22 437.325
GONETS M04 26 May 01:37:32 01:46:22 86° 265° (W) 01:55:05
O/OREOS (USA 219) 26 May 01:37:51 01:40:36 16° 58° (ENE) 01:43:30 437.305
ISS 26 May 01:41:03 01:43:13 16° 332° (NNW) 01:45:20 145.825
BEESAT 26 May 01:42:44 01:46:54 32° 71° (ENE) 01:51:08 436.000
QB50P1 26 May 01:43:12 01:45:45 15° 292° (WNW) 01:48:08 145.935-145.965
POLYITAN 1 26 May 01:44:35 01:47:01 15° 292° (WNW) 01:49:15 437.675
SWISSCUBE 26 May 01:50:42 01:55:09 42° 73° (ENE) 01:59:39 437.505
Cosmos 2499 26 May 01:58:11 02:02:56 20° 69° (ENE) 02:08:02 435.465 / 435.565
DANDE 26 May 02:16:56 02:23:40 33° 273° (W) 02:29:03 436.750
PCSat 26 May 02:28:11 02:33:17 42° 302° (WNW) 02:38:26 145.827
VERMONT LUNAR 26 May 03:05:40 03:08:53 82° 158° (SSE) 03:12:06 437.305
Oscar 19 26 May 03:10:48 03:15:57 69° 285° (WNW) 03:21:02 437.125/150
ITUPSAT 1 26 May 03:12:08 03:16:14 28° 264° (W) 03:20:17 437.325
STARS 26 May 03:14:12 03:18:05 31° 71° (ENE) 03:22:02 437.465
O/OREOS (USA 219) 26 May 03:16:03 03:20:16 41° 254° (WSW) 03:24:27 437.305
PHONESAT 2.4 26 May 03:19:59 03:23:02 29° 148° (SSE) 03:26:07 2401.200-2431.200
BEESAT 26 May 03:21:03 03:24:48 22° 266° (W) 03:28:27 436.000
ITAMSAT 1 26 May 03:22:15 03:27:10 41° 98° (E) 03:32:06 435.822/435.867
BEESAT 2 26 May 03:29:12 03:32:22 22° 51° (NE) 03:35:35 435.950
SWISSCUBE 26 May 03:30:09 03:33:15 17° 268° (W) 03:36:10 437.505
GONETS M04 26 May 03:37:47 03:42:06 14° 280° (W) 03:45:43
KKS-1 26 May 03:42:47 03:47:15 73° 258° (WSW) 03:51:45 437.445
Cosmos 2499 26 May 03:49:45 03:56:41 60° 267° (W) 04:03:42 435.465 / 435.565
Gurwin Techsat 1B 26 May 03:52:48 03:58:07 80° 101° (E) 04:03:27 435.225
SO-50 26 May 04:11:29 04:16:08 80° 300° (WNW) 04:20:58 436.795
BEESAT 3 26 May 04:19:15 04:23:20 85° 243° (WSW) 04:27:20 437.485
JAS-2 26 May 04:26:13 04:30:26 26° 95° (E) 04:34:53 435.910
HORYU 2 26 May 04:29:55 04:33:43 28° 96° (E) 04:37:34 437.375
VERMONT LUNAR 26 May 04:43:17 04:46:16 35° 353° (N) 04:49:16 437.305
AIST 2 26 May 04:49:04 04:53:05 42° 56° (NE) 04:57:03 435.215
STARS 26 May 04:51:15 04:54:36 20° 266° (W) 04:57:50 437.465
PHONESAT 2.4 26 May 04:57:35 05:01:02 61° 343° (NNW) 05:04:29 2401.200-2431.200
ITAMSAT 1 26 May 05:02:29 05:06:25 21° 293° (WNW) 05:10:13 435.822/435.867
MOZHAYETS 4 26 May 05:03:33 05:08:03 60° 75° (ENE) 05:12:34
BEESAT 2 26 May 05:06:55 05:10:29 29° 247° (WSW) 05:13:57 435.950
AO-7 26 May 05:15:34 05:23:49 61° 103° (ESE) 05:32:05 29.400- 29.500
Cosmos 2491 26 May 05:30:33 05:31:38 10° 58° (ENE) 05:33:35 435.465 / 435.565
Gurwin Techsat 1B 26 May 05:35:32 05:37:31 12° 296° (WNW) 05:39:10 435.225
SO-50 26 May 05:56:14 05:57:34 11° 320° (NW) 05:58:42 436.795
HORYU 2 26 May 06:06:47 06:10:14 22° 290° (WNW) 06:13:35 437.375
JAS-2 26 May 06:11:07 06:15:39 30° 290° (WNW) 06:20:12 435.910
VERMONT LUNAR 26 May 06:20:50 06:23:52 38° 10° (N) 06:26:53 437.305
AIST 2 26 May 06:28:58 06:31:19 14° 250° (WSW) 06:33:29 435.215
ISS 26 May 06:33:40 06:36:13 21° 31° (NNE) 06:38:48 145.825
PHONESAT 2.4 26 May 06:36:16 06:39:29 34° 360° (N) 06:42:42 2401.200-2431.200
CUBESAT XI-V 26 May 06:39:22 06:43:45 48° 74° (ENE) 06:48:12 437.345
MOZHAYETS 4 26 May 06:44:29 06:45:44 11° 271° (W) 06:46:39
PRISM 26 May 06:53:54 06:57:24 29° 72° (ENE) 07:00:59 437.425
CUTE-I 26 May 07:06:27 07:11:16 34° 97° (E) 07:16:08 437.470
AO-7 26 May 07:09:16 07:16:10 29° 299° (WNW) 07:22:49 29.400- 29.500
M-CUBED/EXP-1 PRIME 26 May 07:15:47 07:19:46 38° 70° (ENE) 07:23:30 437.505
Cosmos 2491 26 May 07:21:53 07:30:40 67° 80° (E) 07:39:24 435.465 / 435.565
AUBIESAT-1 26 May 07:24:53 07:28:54 41° 70° (ENE) 07:32:40 437.475
Cubesat XI-IV 26 May 07:26:25 07:31:41 54° 100° (E) 07:36:56 437.490
STRAND 1 26 May 07:32:34 07:37:38 75° 74° (ENE) 07:42:45 437.568
VERMONT LUNAR 26 May 07:58:01 08:01:09 61° 206° (SSW) 08:04:19 437.305
BRITE-PL 26 May 08:02:06 08:03:02 11° 85° (E) 08:04:24 437.365/2234.400
YUBILEINY 26 May 08:09:28 08:18:06 66° 93° (E) 08:26:45 435.215
ISS 26 May 08:09:40 08:12:44 36° 227° (SW) 08:15:46 145.825
PHONESAT 2.4 26 May 08:14:31 08:17:56 58° 16° (NNE) 08:21:22 2401.200-2431.200
CUBESAT XI-V 26 May 08:19:05 08:21:32 14° 270° (W) 08:23:44 437.345
PRISM 26 May 08:30:03 08:32:55 18° 266° (W) 08:35:41 437.425
AIST 1 26 May 08:46:13 08:50:37 86° 83° (E) 08:55:01
CUTE-I 26 May 08:46:44 08:51:14 27° 291° (WNW) 08:55:36 437.470
HO-68 26 May 08:48:19 08:52:39 18° 91° (E) 08:57:23 435.675
M-CUBED/EXP-1 PRIME 26 May 08:51:59 08:54:41 16° 261° (W) 08:57:07 437.505
AUBIESAT-1 26 May 09:01:27 09:03:47 14° 262° (W) 09:05:50 437.475
RS-15 26 May 09:06:35 09:16:47 51° 111° (ESE) 09:27:19 29.354- 29.394
Cubesat XI-IV 26 May 09:07:50 09:11:24 18° 294° (WNW) 09:14:44 437.490
DOVE 4 26 May 09:12:31 09:16:18 22° 91° (E) 09:20:04 437.250
COMPASS 1 26 May 09:15:36 09:16:48 11° 90° (E) 09:18:16 437.405
STRAND 1 26 May 09:16:49 09:17:29 10° 272° (W) 09:17:46 437.568
Cosmos 2491 26 May 09:20:19 09:26:51 23° 276° (W) 09:32:57 435.465 / 435.565
AAUSAT CUBESAT 2 26 May 09:27:48 09:29:51 14° 91° (E) 09:32:06 437.432
BRITE-PL 26 May 09:36:41 09:42:22 83° 284° (WNW) 09:47:45 437.365/2234.400
PCSat 26 May 09:37:48 09:39:40 12° 44° (NE) 09:41:47 145.827
GOMX 1 26 May 09:44:02 09:49:25 75° 100° (E) 09:54:29 467.674
PHONESAT 2.4 26 May 09:52:51 09:55:57 31° 211° (SSW) 09:59:03 2401.200-2431.200
ANTELSAT 26 May 09:53:58 09:54:43 10° 66° (ENE) 09:55:45 437.575/2403.000
CUBEBUG 2 26 May 09:56:33 09:58:11 12° 89° (E) 10:00:04 437.445
Cosmos 2504 26 May 09:58:50 10:05:56 33° 88° (E) 10:12:52 435.465 / 435.565
CANX-2 26 May 10:06:19 10:10:33 89° 284° (WNW) 10:14:45 2200.000
YUBILEINY 26 May 10:08:51 10:15:43 24° 292° (WNW) 10:22:13 435.215
CUTE 1.7 + AOD 2 26 May 10:10:00 10:14:14 90° 87° (E) 10:18:26 437.475
Oscar 11 26 May 10:15:07 10:18:30 23° 94° (E) 10:21:59 145.826/435.025
TIGRISAT 26 May 10:24:10 10:27:44 23° 70° (ENE) 10:31:25 435.000
CINEMA 3 26 May 10:33:33 10:38:17 76° 101° (E) 10:42:46 145.822/145.860
HO-68 26 May 10:33:58 10:41:07 72° 288° (WNW) 10:48:12 435.675
SEEDS 26 May 10:34:07 10:38:13 56° 285° (WNW) 10:42:18 437.485
UNISAT 6 26 May 10:43:25 10:47:43 37° 73° (ENE) 10:52:02 437.425
UWE-3 26 May 10:43:49 10:47:49 35° 97° (E) 10:51:45 435.000/436.395/437.385
COMPASS 1 26 May 10:48:50 10:52:49 46° 285° (WNW) 10:56:47 437.405
DOVE 4 26 May 10:49:31 10:54:12 36° 288° (WNW) 10:58:35 437.250
FUNcube-1 26 May 10:56:09 11:00:08 37° 97° (E) 11:04:03 145.935
QB50P1 26 May 10:56:37 10:59:49 21° 70° (ENE) 11:03:08 145.935-145.965
POLYITAN 1 26 May 10:58:00 11:01:20 23° 70° (ENE) 11:04:46 437.675
AAUSAT CUBESAT 2 26 May 11:01:49 11:05:40 38° 286° (WNW) 11:09:29 437.432
50 SAT 26 May 11:11:50 11:13:06 12° 91° (E) 11:14:36 437.505
PCSat 26 May 11:18:35 11:24:02 82° 61° (ENE) 11:29:27 145.827
BRITE-PL 26 May 11:19:04 11:20:02 10° 298° (WNW) 11:20:36 437.365/2234.400
RS-15 26 May 11:19:05 11:29:23 44° 312° (NW) 11:39:50 29.354- 29.394
GOMX 1 26 May 11:24:30 11:26:51 13° 296° (WNW) 11:28:53 467.674
ANTELSAT 26 May 11:26:17 11:30:59 72° 259° (WSW) 11:35:39 437.575/2403.000
NANOSAT C BR1 26 May 11:27:16 11:31:22 48° 74° (ENE) 11:35:31 145.865
CUBEBUG 2 26 May 11:30:59 11:35:17 48° 286° (WNW) 11:39:25 437.445
DELFI C3 26 May 11:34:29 11:38:23 49° 285° (WNW) 11:42:15 145.870
QB50P2 26 May 11:34:32 11:38:46 62° 75° (ENE) 11:43:02 145.880/145.840
ZACube-1 26 May 11:36:07 11:40:26 68° 284° (WNW) 11:44:36 437.345
HUMSAT D 26 May 11:37:00 11:41:02 50° 99° (E) 11:45:02 437.325/437.525
UKube-1 26 May 11:39:36 11:43:52 51° 100° (E) 11:48:05 .
POPSAT HIP 1 26 May 11:46:57 11:51:14 85° 77° (ENE) 11:55:34 437.405
DX 1 26 May 11:47:03 11:51:27 69° 102° (ESE) 11:55:49 434.975-435.025
DUCHIFAT 1 26 May 11:49:34 11:53:51 89° 62° (ENE) 11:58:09 145.980
Oscar 11 26 May 11:51:05 11:54:39 25° 289° (WNW) 11:58:08 145.826/435.025
Cosmos 2504 26 May 11:51:09 11:59:11 45° 283° (WNW) 12:06:39 435.465 / 435.565
VELOX 1 26 May 11:58:08 12:02:25 43° 99° (E) 12:06:40 145.980
ESTCUBE 1 26 May 11:58:12 12:01:54 25° 95° (E) 12:05:41 437.505/2401.250
CUBEBUG 1 26 May 11:59:19 12:02:43 22° 94° (E) 12:06:13 437.445
TIGRISAT 26 May 12:00:06 12:04:20 32° 264° (W) 12:08:28 435.000
JUGNU 26 May 12:03:35 12:06:53 15° 174° (S) 12:10:13 437.505
BUGSAT 1 26 May 12:16:25 12:20:30 63° 259° (W) 12:24:40 437.445
UWE-3 26 May 12:21:11 12:24:06 17° 291° (WNW) 12:26:48 435.000/436.395/437.385
UNISAT 6 26 May 12:21:15 12:24:38 19° 267° (W) 12:27:50 437.425
HO-68 26 May 12:25:12 12:27:48 12° 303° (WNW) 12:29:55 435.675
AISAT 26 May 12:29:20 12:33:51 78° 282° (WNW) 12:38:19 437.250
QB50P1 26 May 12:31:52 12:35:34 27° 264° (W) 12:39:12 145.935-145.965
FUNcube-1 26 May 12:33:28 12:36:11 16° 292° (WNW) 12:38:41 145.935
POLYITAN 1 26 May 12:33:29 12:37:08 26° 265° (W) 12:40:45 437.675
CUSAT 1 26 May 12:33:38 12:38:46 23° 84° (E) 12:44:48 437.405
GONETS M04 26 May 12:40:54 12:46:54 22° 83° (E) 12:53:21
SPROUT 26 May 12:41:40 12:44:24 17° 92° (E) 12:47:18 437.525
50 SAT 26 May 12:44:26 12:48:04 38° 286° (WNW) 12:51:39 437.505
SO-50 26 May 12:45:54 12:50:36 42° 55° (NE) 12:55:14 436.795
Oscar 19 26 May 12:48:21 12:50:50 14° 65° (ENE) 12:53:36 437.125/150
PCSat 26 May 13:05:48 13:06:51 10° 256° (WSW) 13:07:29 145.827
NANOSAT C BR1 26 May 13:05:49 13:07:32 12° 270° (W) 13:09:01 145.865
TISAT 1 26 May 13:07:25 13:10:50 24° 95° (E) 13:14:19 437.305
HUMSAT D 26 May 13:14:54 13:16:22 11° 293° (WNW) 13:17:37 437.325/437.525
UKube-1 26 May 13:17:36 13:19:36 13° 293° (WNW) 13:21:22 .
SRMSAT 26 May 13:19:39 13:22:33 14° 171° (S) 13:25:31 437.500
ESTCUBE 1 26 May 13:34:56 13:38:43 26° 289° (WNW) 13:42:26 437.505/2401.250
CUBEBUG 1 26 May 13:35:14 13:39:05 28° 289° (WNW) 13:42:51 437.445
VELOX 1 26 May 13:35:54 13:38:38 16° 292° (WNW) 13:41:12 145.980
Gurwin Techsat 1B 26 May 13:36:05 13:36:52 10° 63° (ENE) 13:37:59 435.225
DANDE 26 May 13:37:53 13:44:24 54° 92° (E) 13:52:24 436.750
RS-15 26 May 13:40:00 13:46:02 15° 344° (NNW) 13:51:52 29.354- 29.394
JUGNU 26 May 13:51:37 13:55:11 16° 184° (S) 13:58:42 437.505
SWISSCUBE 26 May 13:55:32 13:57:51 14° 91° (E) 14:00:26 437.505
CUSAT 1 26 May 14:13:39 14:20:40 67° 282° (WNW) 14:28:54 437.405
SPROUT 26 May 14:16:40 14:20:38 34° 287° (WNW) 14:24:32 437.525
Oscar 19 26 May 14:24:33 14:29:42 65° 259° (W) 14:34:53 437.125/150
AO-7 26 May 14:25:24 14:27:48 12° 51° (NE) 14:30:47 29.400- 29.500
SO-50 26 May 14:27:11 14:30:53 21° 250° (WSW) 14:34:23 436.795
Cosmos 2499 26 May 14:32:02 14:37:08 19° 85° (E) 14:42:27 435.465 / 435.565
GONETS M04 26 May 14:34:14 14:43:02 69° 279° (W) 14:51:52
ITAMSAT 1 26 May 14:37:21 14:42:15 47° 73° (ENE) 14:47:13 435.822/435.867
TISAT 1 26 May 14:43:03 14:46:33 24° 289° (WNW) 14:49:57 437.305
SRMSAT 26 May 15:07:21 15:10:59 17° 181° (S) 15:14:38 437.500
Gurwin Techsat 1B 26 May 15:10:53 15:16:11 88° 255° (WSW) 15:21:32 435.225
ITUPSAT 1 26 May 15:14:45 15:19:34 87° 283° (WNW) 15:24:22 437.325
DANDE 26 May 15:22:06 15:28:12 29° 294° (WNW) 15:35:01 436.750
BEESAT 26 May 15:22:56 15:27:41 70° 284° (WNW) 15:32:26 436.000
HORYU 2 26 May 15:25:58 15:29:08 20° 69° (ENE) 15:32:25 437.375
SWISSCUBE 26 May 15:31:25 15:36:04 51° 286° (WNW) 15:40:41 437.505
KKS-1 26 May 15:37:22 15:41:08 27° 96° (E) 15:44:56 437.445
JUGNU 26 May 15:41:52 15:43:26 11° 193° (SSW) 15:44:54 437.505
O/OREOS (USA 219) 26 May 15:46:20 15:50:16 30° 104° (ESE) 15:54:15 437.305
RS-15 26 May 15:58:40 16:05:07 16° 20° (NNE) 16:12:07 29.354- 29.394
CUSAT 1 26 May 16:02:15 16:05:20 12° 303° (WNW) 16:07:54 437.405
AO-7 26 May 16:11:04 16:19:11 63° 69° (ENE) 16:27:23 29.400- 29.500
JAS-2 26 May 16:18:11 16:25:04 73° 75° (ENE) 16:31:08 435.910
ITAMSAT 1 26 May 16:18:32 16:22:03 18° 268° (W) 16:25:22 435.822/435.867
Cosmos 2499 26 May 16:21:31 16:29:47 70° 279° (W) 16:37:25 435.465 / 435.565
GONETS M04 26 May 16:39:14 16:41:57 11° 302° (WNW) 16:43:51
STARS 26 May 16:42:33 16:47:00 87° 282° (WNW) 16:51:23 437.465
SRMSAT 26 May 16:56:50 16:59:25 13° 191° (S) 17:01:56 437.500
HORYU 2 26 May 17:01:29 17:05:34 33° 263° (W) 17:09:37 437.375
MOZHAYETS 4 26 May 17:02:42 17:05:41 18° 92° (E) 17:08:50
KKS-1 26 May 17:14:03 17:17:41 24° 290° (WNW) 17:21:11 437.445
O/OREOS (USA 219) 26 May 17:26:12 17:29:45 22° 300° (WNW) 17:33:11 437.305
AO-7 26 May 18:05:56 18:12:34 25° 266° (W) 18:18:55 29.400- 29.500
JAS-2 26 May 18:06:37 18:10:35 15° 269° (W) 18:13:55 435.910
BEESAT 3 26 May 18:09:22 18:13:03 35° 114° (ESE) 18:16:49 437.485
RS-15 26 May 18:10:29 18:21:34 49° 50° (NE) 18:33:13 29.354- 29.394
YUBILEINY 26 May 18:24:09 18:31:07 27° 70° (ENE) 18:38:22 435.215
CUTE-I 26 May 18:25:26 18:30:22 41° 72° (ENE) 18:35:22 437.470
Cosmos 2491 26 May 18:28:19 18:31:43 13° 80° (E) 18:35:53 435.465 / 435.565
MOZHAYETS 4 26 May 18:38:51 18:43:04 37° 287° (WNW) 18:47:14
CUBESAT XI-V 26 May 18:40:14 18:42:56 16° 91° (E) 18:45:50 437.345
AIST 2 26 May 18:45:09 18:48:04 19° 111° (ESE) 18:51:10 435.215
Cubesat XI-IV 26 May 18:45:32 18:50:46 67° 75° (ENE) 18:56:04 437.490
BEESAT 2 26 May 18:57:02 19:01:07 79° 299° (WNW) 19:05:17 435.950
HO-68 26 May 19:18:42 19:19:12 10° 55° (NE) 19:20:14 435.675
STRAND 1 26 May 19:46:26 19:50:59 32° 96° (E) 19:55:35 437.568
BEESAT 3 26 May 19:48:09 19:51:09 19° 310° (NW) 19:54:05 437.485
CUTE-I 26 May 20:06:39 20:10:39 21° 267° (W) 20:14:31 437.470
PRISM 26 May 20:13:37 20:17:47 75° 102° (ESE) 20:21:57 437.425
DOVE 4 26 May 20:15:17 20:18:33 18° 67° (ENE) 20:22:05 437.250
CUBESAT XI-V 26 May 20:16:09 20:20:38 44° 286° (WNW) 20:25:05 437.345
Cosmos 2491 26 May 20:18:41 20:27:28 84° 95° (E) 20:36:21 435.465 / 435.565
YUBILEINY 26 May 20:20:02 20:28:30 57° 269° (W) 20:36:53 435.215
AIST 2 26 May 20:22:31 20:26:26 34° 305° (NW) 20:30:22 435.215
RS-15 26 May 20:23:03 20:34:11 49° 249° (WSW) 20:45:31 29.354- 29.394
Cubesat XI-IV 26 May 20:29:02 20:31:27 13° 271° (W) 20:33:31 437.490
M-CUBED/EXP-1 PRIME 26 May 20:34:26 20:37:34 39° 104° (ESE) 20:40:43 437.505
AUBIESAT-1 26 May 20:42:55 20:46:06 44° 104° (ESE) 20:49:18 437.475
BRITE-PL 26 May 20:43:52 20:48:51 81° 78° (ENE) 20:54:18 437.365/2234.400
GOMX 1 26 May 20:48:25 20:53:21 57° 75° (ENE) 20:58:39 467.674
CANX-2 26 May 20:56:16 21:00:18 43° 74° (ENE) 21:04:21 2200.000
HO-68 26 May 20:58:42 21:05:46 64° 71° (ENE) 21:12:53 435.675
CUTE 1.7 + AOD 2 26 May 20:59:53 21:03:54 42° 74° (ENE) 21:07:57 437.475
Oscar 11 26 May 21:08:30 21:10:31 14° 68° (ENE) 21:12:45 145.826/435.025
AIST 1 26 May 21:12:31 21:16:40 58° 94° (E) 21:20:53
SEEDS 26 May 21:22:52 21:27:03 66° 76° (ENE) 21:31:15 437.485
STRAND 1 26 May 21:25:47 21:30:05 26° 291° (WNW) 21:34:16 437.568
CINEMA 3 26 May 21:31:31 21:36:17 50° 74° (ENE) 21:41:11 145.822/145.860
COMPASS 1 26 May 21:36:39 21:40:50 77° 77° (ENE) 21:45:02 437.405
UWE-3 26 May 21:38:10 21:41:46 23° 70° (ENE) 21:45:30 435.000/436.395/437.385
Cosmos 2504 26 May 21:46:52 21:53:52 53° 79° (ENE) 22:00:55 435.465 / 435.565
AAUSAT CUBESAT 2 26 May 21:49:05 21:53:16 87° 258° (WSW) 21:57:27 437.432
FUNcube-1 26 May 21:49:12 21:52:44 23° 70° (ENE) 21:56:21 145.935
DOVE 4 26 May 21:50:57 21:55:52 51° 262° (W) 22:01:00 437.250
DELFI C3 26 May 22:18:34 22:22:32 63° 76° (ENE) 22:26:32 145.870
Cosmos 2491 26 May 22:19:49 22:25:38 18° 296° (WNW) 22:30:58 435.465 / 435.565
CUBEBUG 2 26 May 22:25:15 22:30:01 86° 255° (WSW) 22:34:49 437.445
HUMSAT D 26 May 22:26:07 22:29:39 25° 71° (ENE) 22:33:15 437.325/437.525
ZACube-1 26 May 22:28:28 22:33:00 64° 76° (ENE) 22:37:34 437.345
GOMX 1 26 May 22:29:01 22:31:59 15° 272° (W) 22:34:45 467.674
UKube-1 26 May 22:31:50 22:35:34 30° 71° (ENE) 22:39:23 .
CANX-2 26 May 22:34:20 22:36:29 13° 269° (W) 22:38:24 2200.000
CUTE 1.7 + AOD 2 26 May 22:37:53 22:40:04 13° 269° (W) 22:42:02 437.475
DX 1 26 May 22:39:48 22:43:51 40° 72° (ENE) 22:47:58 434.975-435.025
Oscar 11 26 May 22:42:10 22:46:21 46° 261° (W) 22:50:32 145.826/435.025
HO-68 26 May 22:48:47 22:54:04 21° 268° (W) 22:59:02 435.675
VELOX 1 26 May 22:53:14 22:56:55 27° 71° (ENE) 23:00:43 145.980
CUBEBUG 1 26 May 22:54:06 22:56:05 13° 67° (ENE) 22:58:18 437.445
ESTCUBE 1 26 May 22:55:58 22:58:46 17° 68° (ENE) 23:01:44 437.505/2401.250
CINEMA 3 26 May 23:10:43 23:13:49 16° 270° (W) 23:16:43 145.822/145.860
ISS 26 May 23:10:44 23:13:25 25° 131° (SE) 23:16:10 145.825
UWE-3 26 May 23:13:58 23:18:09 31° 264° (W) 23:22:17 435.000/436.395/437.385
CUSAT 1 26 May 23:17:39 23:20:13 13° 57° (ENE) 23:23:00 437.405
ANTELSAT 26 May 23:22:00 23:25:43 28° 96° (E) 23:29:26 437.575/2403.000
AISAT 26 May 23:23:58 23:28:22 64° 75° (ENE) 23:32:49 437.250
QB50P2 26 May 23:24:47 23:26:35 13° 91° (E) 23:28:37 145.880/145.840
FUNcube-1 26 May 23:24:51 23:28:55 30° 264° (W) 23:32:55 145.935
50 SAT 26 May 23:25:33 23:29:32 72° 77° (ENE) 23:33:32 437.505
POPSAT HIP 1 26 May 23:36:17 23:39:04 17° 93° (E) 23:41:59 437.405
DUCHIFAT 1 26 May 23:38:23 23:41:13 18° 93° (E) 23:44:11 145.980
Cosmos 2504 26 May 23:41:27 23:46:49 22° 274° (W) 23:51:55 435.465 / 435.565
TIGRISAT 26 May 23:54:29 23:58:51 68° 102° (ESE) 00:03:06 435.000
TISAT 1 26 May 23:58:15 00:00:09 13° 67° (ENE) 00:02:16 437.305
HUMSAT D 27 May 00:01:50 00:05:21 23° 266° (W) 00:08:46 437.325/437.525
BUGSAT 1 27 May 00:02:09 00:05:32 23° 95° (E) 00:08:58 437.445
UKube-1 27 May 00:08:32 00:11:45 20° 266° (W) 00:14:53 .
ZACube-1 27 May 00:09:10 00:09:51 10° 272° (W) 00:10:11 437.345
UNISAT 6 27 May 00:14:51 00:19:12 66° 284° (WNW) 00:23:26 437.425
PCSat 27 May 00:16:29 00:19:31 16° 106° (ESE) 00:22:49 145.827
DX 1 27 May 00:17:45 00:20:20 15° 268° (W) 00:22:43 434.975-435.025
QB50P1 27 May 00:19:14 00:23:28 58° 100° (E) 00:27:40 145.935-145.965
POLYITAN 1 27 May 00:21:06 00:25:22 63° 101° (E) 00:29:34 437.675
DANDE 27 May 00:24:33 00:31:37 38° 70° (ENE) 00:37:22 436.750
CUBEBUG 1 27 May 00:27:52 00:32:04 48° 261° (W) 00:36:19 437.445
VELOX 1 27 May 00:29:54 00:33:28 23° 265° (W) 00:36:57 145.980
ESTCUBE 1 27 May 00:31:11 00:35:23 39° 262° (W) 00:39:34 437.505/2401.250
ISS 27 May 00:46:57 00:49:47 27° 326° (NNW) 00:52:37 145.825
GONETS M04 27 May 00:48:23 00:56:53 53° 77° (ENE) 01:05:22
NANOSAT C BR1 27 May 00:50:42 00:54:54 58° 285° (WNW) 00:59:04 145.865
QB50P2 27 May 00:58:40 01:02:47 44° 286° (WNW) 01:06:48 145.880/145.840
ANTELSAT 27 May 00:59:02 01:02:22 21° 290° (WNW) 01:05:34 437.575/2403.000
SWISSCUBE 27 May 01:00:25 01:02:10 12° 66° (ENE) 01:04:12 437.505
